COSMOS 1275 DEB

Satellite information

Favourite Embed

Satellite Type and Status

DEBRISIN ORBIT

Key statistics

Satellite COSMOS 1275 DEB at a glance.

Uptime

16264

Days in orbit

Revolutions

≈ 14.3

Per day

Orbit

LEO

Low Earth Orbit

Inclination

82.9

Latest

Satellite identification and parameters

Extended collection of information and parameters for COSMOS 1275 DEB.

Object identification

Identified? True

Debris? True

Object name: COSMOS 1275 DEB

International designator: 1981-053BX

Object number (NORAD): 12730

Object ID (CCSDS): 12730

Country: COMMONWEALTH OF INDEPENDENT STATES (CIS)

Current information (Y/N): Y

RCS size: MEDIUM

Orbital parameters

Period: 100.362 minutes

Inclination: 82.9377 deg

SMA: 7153.826 km

Apoapsis: 787.373 km

Periapsis: 764.008 km

RAAN: 165.9493 deg

Eccentricy: 0.001633

Argument of periapsis: 304.2236 deg

Mean anomaly: 181.2358 deg

Mean motion: 14.34812777 rev/day

Mean motion (dot): 0.00007325 rev/day2

B* drag term: 0.0025716921 1/REarth

Two-line elements (TLE)

Creation date: Dec. 12, 2025, 10:14 a.m.

Reference frame: TEME

Reference center: EARTH

Epoch: Dec. 12, 2025, 5:44 a.m. UTC

TLE line 0: 0 COSMOS 1275 DEB

TLE line 1: 1 12730U 81053BX 25346.23941149 .00007325 00000-0 25717-2 0 9994

TLE line 2: 2 12730 82.9377 165.9493 0016330 304.2236 181.2358 14.34812777270282

Live tracking on map

Real-time ground track for satellite COSMOS 1275 DEB.

In-orbit conjunctions

A list of the most updated potential collisions computed for object COSMOS 1275 DEB.

Target Orbit TCA Probability of collision Miss distance Type
FEDSAT SSO 2025-10-23 16:06:05 0.0002108155 878.0 (m) PAYLOAD
SL-8 R/B LEO 2025-06-17 09:50:02 0.0002550337 503.0 (m) ROCKET BODY
NOAA 16 DEB SSO 2025-04-08 11:11:43 0.0001921993 101.0 (m) DEBRIS
CZ-6A DEB LEO 2025-02-24 11:45:25 0.0001020407 371.0 (m) DEBRIS
CZ-6A DEB LEO 2024-12-25 21:22:31 0.0001275561 64.0 (m) DEBRIS

Associated space launch

Navigation satellite providing location information for the Tsiklon-B navigation system

COSMOS 1275 DEB was lifted into orbit during the mission ‘Kosmos-3M | Parus 27’, on board a Kosmos-3M space rocket.

The launch took place on June 4, 1981, 3:41 p.m. from 132/2.

For more information about the launch, click the button.

Launch to space Kosmos-3M | Parus 27
Kosmos-3M | Parus 27

Agency: N/A

Status: Launch Successful

Launch date: June 4, 1981, 3:41 p.m. UTC

Rocket: Kosmos-3M

Launch pad: 132/2

Location: Plesetsk Cosmodrome, Russian Federation

...

Latest news about this satellite

There are no fresh news available about this satellite. Check back as we update our databases every day.


Newsletter sign-up

Weekly statistics, charts and insights to help you stay on top of the space industry.